Flag for U.S.A. Weather past 2 weeks in State College, Pennsylvania, U.S.A.

Now
74 °F

Clear.


Feels Like: 77 °F
Forecast: 59 / 81 °F
Wind: No wind

Location: University Park Airport

Current Time: Jul 30, 2015 at 11:34:30 PM

Latest Report: Jul 30, 2015 at 10:55 PM


Visibility: 10 mi

Pressure: 29.97 "Hg

Humidity: 53%

Dew point: 55 °F

Location of State CollegeLocation

Historic Weather in State College — Graph

°F

State College temperature yesterday

Maximum temperature yesterday: 84 °F (at 1:53 PM)
Minimum temperature yesterday: 61 °F (at 6:53 AM)
Average temperature yesterday: 72 °F

Past Weeks' High & Low Weather Summary

 TemperatureHumidityPressure
High88 °F (Jul 19, 3:53 PM)100% (Jul 16, 5:53 AM)30.12 "Hg (Jul 16, 5:53 AM)
Low48 °F (Jul 16, 5:53 AM)41% (Jul 16, 3:53 PM)29.69 "Hg (Jul 21, 2:53 PM)
Average69 °F80%29.97 "Hg
* Reported Jul 15 10:15 PM — Jul 30 10:15 PM, State College, Weather by CustomWeather, © 2015

Note: Actual official high and low records may vary slightly from our data, if they occured in-between our weather recording intervals... More about our weather records

Advertising

State College weather history for previous 24 hours

 ConditionsComfort  
Time TempWeatherWind HumidityBarometerVisibility
10:15 PM
Thu, Jul 30
75 °FClear.No wind52%29.97 "Hg10 mi
8:53 PM75 °FScattered clouds.6 mph57%29.94 "Hg10 mi
7:53 PM79 °FScattered clouds.7 mph51%29.92 "Hg10 mi
6:53 PM81 °FScattered clouds.8 mph48%29.90 "Hg10 mi
5:53 PM82 °FScattered clouds.13 mph45%29.90 "Hg10 mi
4:53 PM84 °FScattered clouds.10 mph43%29.89 "Hg10 mi
3:53 PM82 °FSunny.14 mph48%29.90 "Hg10 mi
2:53 PM82 °FSunny.14 mph48%29.92 "Hg10 mi
1:53 PM82 °FSunny.14 mph51%29.92 "Hg10 mi
12:53 PM81 °FPassing clouds.12 mph70%29.93 "Hg10 mi
11:53 AM79 °FScattered clouds.12 mph70%29.95 "Hg7 mi
10:53 AM75 °FFog.No wind94%29.94 "Hg4 mi
9:53 AM72 °FFog.No wind100%29.93 "Hg2 mi
8:53 AM72 °FHeavy rain. Low clouds.No wind94%29.95 "Hg1 mi
7:53 AM72 °FLight rain. Cloudy.No wind94%29.94 "Hg3 mi
6:53 AM72 °FFog.No wind94%29.92 "Hg5 mi
5:53 AM70 °FFog.No wind94%29.91 "Hg5 mi
5:15 AM72 °FClear.No wind96%29.91 "Hg7 mi
4:55 AM71 °FClear.No wind97%29.91 "Hg7 mi
4:35 AM72 °FClear.3 mph94%29.91 "Hg10 mi
4:15 AM72 °FClear.No wind93%29.91 "Hg10 mi
3:55 AM72 °FClear.5 mph95%29.92 "Hg7 mi
3:15 AM73 °FPassing clouds.6 mph93%29.93 "Hg10 mi
2:55 AM74 °FPartly cloudy.5 mph90%29.93 "Hg10 mi
2:15 AM74 °FPassing clouds.3 mph90%29.94 "Hg10 mi
1:55 AM75 °FClear.3 mph87%29.95 "Hg10 mi
1:15 AM75 °FClear.5 mph86%29.95 "Hg10 mi
12:55 AM75 °FClear.5 mph86%29.95 "Hg10 mi
12:15 AM76 °FClear.3 mph85%29.96 "Hg10 mi
11:55 PM
Wed, Jul 29
75 °FClear.3 mph85%29.96 "Hg10 mi
11:15 PM76 °FClear.3 mph85%29.96 "Hg10 mi
Weather by CustomWeather, © 2015

See weather overviewHow to use our weather pages